Погода в Сухих Плотах

Россия / Тульская область     53°27′02″N   38°08′52″E
темп.,
°C
ветер,
м/с
пор.,
м/с
влажн.,
%
обл.,
%
осадки,
мм/ч
давл.,
гПа
погр.,
м
13 мая, чт
чт1300:00+6вюв379597 0.0 1019130
03:00+6в4129560 0.0 1018233
06:00+8в51494100 0.1 1017384
09:00+12юв71380100 0.1 1016760
12:00+13ю4783100 0.4 1016796
15:00+12юв51291100 8.9 1015643
18:00+14ю588482 0.5 1015907
21:00+10ююв229189 0.5 101621
14 мая, пт
пт1400:00+10юв33925 0.0 101728
03:00+9юв339298 0.0 101729
06:00+10вюв359172 0.0 1017108
09:00+16юв5883100 0.3 1016458
12:00+20юв6969100 0.0 10151180
15:00+21юв71171100 0.6 10131346
18:00+19ююв61378100 0.5 1012699
21:00+16юв61688100 0.6 1011430
15 мая, сб
сб1500:00+15ююз2285100 0.0 101117
03:00+15ссв2291100 3.1 101023
06:00+14вюв4994100 0.7 1010227
09:00+18ююв6887100 1.4 1010453
12:00+21ююз697250 0.6 10101036
15:00+22ююз7116315 0.6 10101732
18:00+18юз611750 0.2 10111130
21:00+14ююз39890 0.2 1012223
16 мая, вс
вс1600:00+13юз39925 0.0 1013212
03:00+12ююз379534 0.0 1014135
06:00+12ююз489389 0.0 1014238
09:00+17юз58724 0.0 1015646
12:00+20юз58615 0.0 10151262
15:00+20юз57593 0.4 10151490
18:00+20юз36681 0.3 1014536
21:00+15сз238410 0.3 101523
17 мая, пн
пн1700:00+14ссв338697 0.0 101534
03:00+13всв348923 0.0 101552
06:00+14всв37905 0.0 1015159
09:00+19в58718 0.0 1014423
12:00+23в686481 0.0 1013856
15:00+25вюв5764100 0.0 10121212
18:00+23юв5106561 0.0 1012383
21:00+18вюв4128319 0.0 1012220